Regional Weather Roundup
Issued by NWS

Home | Current Version | Previous Version | Text Only | Print | Product List | Glossary On
Versions: 1 2 3 4 5 6 7 8 9 10 11 12 13 14 15 16 17 18 19 20 21 22 23 24 25 26 27 28 29 30 31 32 33 34 35 36 37 38 39 40 41 42 43 44 45 46 47 48 49 50
000
ASUS42 KFFC 310610
RWRGA
WEATHER ROUNDUP FOR GEORGIA
NATIONAL WEATHER SERVICE PEACHTREE CITY GA
200 AM EDT SAT JUL 31 2021

NOTE: "FAIR" INDICATES FEW OR NO CLOUDS BELOW 12,000 FEET WITH NO
SIGNIFICANT WEATHER AND/OR OBSTRUCTIONS TO VISIBILITY.

* = USE WITH CAUTION. THE STATIONS MARKED WITH AN ASTERISK MAY NOT
REPORT WEATHER SUCH AS PRECIPITATION, FOG, OR THUNDER AND ARE NOT
QUALITY CONTROLLED BY NWS.

THE REMARK "TC" DENOTES TEMPERATURE READING IN DEGREES CELSIUS.

GAZ001>058-310700-
NORTH GEORGIA

CITY           SKY/WX    TMP DP  RH WIND       PRES   REMARKS
ATLANTA        MOCLDY    79  71  76 W6        30.01S
6HR MIN TEMP:  79; 6HR MAX TEMP:  88; 6HR PCP: TRACE;

ATHENS         MOCLDY    78  71  79 W3        29.98F
6HR MIN TEMP:  78; 6HR MAX TEMP:  87;

CHAMBLEE       CLOUDY    78  71  79 NW3       30.01F
6HR MIN TEMP:  78; 6HR MAX TEMP:  82; 6HR PCP: TRACE;

PEACHTREE CITY MOCLDY    79  74  84 W3        30.01F
6HR MIN TEMP:  79; 6HR MAX TEMP:  87;

ROME           CLOUDY    77  72  84 SW5       30.00S
6HR MIN TEMP:  76; 6HR MAX TEMP:  83;

WEST ATLANTA   CLOUDY    79  71  76 W5        30.01F
6HR MIN TEMP:  77; 6HR MAX TEMP:  85; 6HR PCP:  0.01;

GAINESVILLE    MOCLDY    76  70  82 NW7       30.03F
6HR MIN TEMP:  76; 6HR MAX TEMP:  82;

CARTERSVILLE   CLOUDY    73  72  94 CALM      30.02S


CITY           SKY/WX    TMP DP  RH WIND       PRES   REMARKS
DALTON*        MOCLDY    73  72  94 CALM      30.02F
LAWRENCEVILLE* MOCLDY    77  71  82 CALM      30.01F
MARIETTA       CLOUDY    76  72  87 W6        30.01F
KENNESAW*      CLOUDY    75  72  90 W5        30.03F
CANTON*        CLOUDY   N/A N/A N/A CALM      30.04S
BLAIRSVILLE*   MOCLDY    70  70  98 CALM      30.08S FOG
$$

GAZ059>098-102>109-310700-
CENTRAL GEORGIA

CITY           SKY/WX    TMP DP  RH WIND       PRES   REMARKS
AUGUSTA-BUSH   CLEAR     79  76  90 CALM      29.93F
6HR MIN TEMP:  79; 6HR MAX TEMP:  89; 6HR PCP:  0.02;

AUGUSTA-DANIEL CLEAR     84  76  76 W3        29.96F HX  93
6HR MIN TEMP:  84; 6HR MAX TEMP:  92; 6HR PCP: TRACE;

COLUMBUS       PTCLDY    82  74  76 CALM      29.99F
6HR MIN TEMP:  82; 6HR MAX TEMP:  92;

MACON          PTCLDY    80  75  84 SW5       29.97F
6HR MIN TEMP:  80; 6HR MAX TEMP:  88;

ROBINS AFB     PTCLDY    83  75  79 SW5       29.97F HX  90


CITY           SKY/WX    TMP DP  RH WIND       PRES   REMARKS
LAGRANGE*      PTCLDY    78  71  80 CALM      30.02S
SYLVANIA*      CLEAR     80  75  85 CALM      29.97F
$$

GAZ099>101-110>166-310700-
SOUTH GEORGIA

CITY           SKY/WX    TMP DP  RH WIND       PRES   REMARKS
SAVANNAH       CLEAR     81  76  84 SW3       29.97F
6HR MIN TEMP:  81; 6HR MAX TEMP:  90;

VALDOSTA       PTCLDY    79  77  94 SW3       30.02F
6HR MIN TEMP:  79; 6HR MAX TEMP:  88;

ALMA           PTCLDY    80  77  90 SW6       29.99F
6HR MIN TEMP:  80; 6HR MAX TEMP:  89;

ST SIMONS      PTCLDY    82  78  88 SW8       29.99F HX  91
6HR MIN TEMP:  82; 6HR MAX TEMP:  87;

FT STEWART     CLEAR     82  76  83 SW8       29.95F
ALBANY         CLEAR     81  77  88 CALM      30.01F
HUNTER AFB     CLEAR     82  76  80 SW6       29.94F
MOODY AFB      PTCLDY    79  76  89 SW5       30.00F
BRUNSWICK      PTCLDY    81  77  88 SW10      29.99F


CITY           SKY/WX    TMP DP  RH WIND       PRES   REMARKS
BAINBRIDGE*    CLEAR     79  78  96 SW5       30.01S
MOULTRIE*      CLEAR     79  75  89 CALM      30.02F
VIDALIA*       CLEAR     81  73  78 W3        29.99S
WAYCROSS*      PTCLDY    81  79  95 SW6       30.01F HX  90
DOUGLAS*       PTCLDY    80  77  91 SW3       30.02S
$$



USA.gov is the U.S. government's official web portal to all federal, state and local government web resources and services.